www.pogodaiklimat.ru

Погода и климат >> Архив погоды >> ОАЭ >> Fujairah


ПОГОДА в Fujairah

  • Прогноз погоды в Fujairah
  • Монитор погоды в Fujairah
  • Климат города

АРХИВ ПОГОДЫ в Fujairah

Время (UTC), дата Ветер
(напр.,м/с)
 
Видим.   Явления Облачность Т
(С)
Тd
(С)
f
(%)
Тe
(С)
Тes
(С)
Комфортность P
(гПа)
Po
(гПа)
Тmin
(С)
Tmax
(С)
R
(мм)
R24
(мм)
S
(см)
12 11.12 В 3 8000 м мгла ясно +24.9 +10.0 39 +26 +27 жарко 1016.7 1017.0
15 11.12 Ю 2 8000 м мгла ясно +23.6 +11.3 46 +25 +25 комфорт 1017.9 1018.0
18 11.12 З 6 8000 м мгла ясно +22.8 +12.5 52 +26 +26 жарко 1017.7 1012.3 +26.5
21 11.12 З 5 8000 м мгла ясно +22.1 +12.5 54 +25 +25 комфорт 1015.9 1010.5
00 12.12 З 5 8000 м мгла ясно +21.9 +12.6 56 +24 +24 комфорт 1015.0 1015.0
03 12.12 СЗ 3 10 км мгла 1/1 750 м
[Sc]
+21.1 +13.3 61 +23 +23 комфорт 1015.8 1016.0
06 12.12 З 5 8000 м мгла 5/5 600 м
[Sc]
+24.2 +13.3 51 +26 +28 жарко 1016.9 1017.0 +2.9
09 12.12 З 5 7000 м пыль 4/4 900 м
[Sc]
+25.8 +12.3 43 +27 +30 жарко 1014.8 1009.4
12 12.12 СЗ 6 6000 м пыль 4/4 900 м
[Sc]
+26.5 +11.5 39 +28 +28 жарко 1014.3 1014.0
15 12.12 С 3 8000 м пыль 3/3 900 м
[Sc]
+23.9 +15.2 58 +27 +27 жарко 1016.7 1017.0
18 12.12 З 5 8000 м пыль ясно +22.0 +12.3 54 +24 +24 комфорт 1017.3 1017.0 +27.3
21 12.12 З 4 10 км ясно +20.7 +12.2 58 +23 +23 комфорт 1017.6 1018.0
00 13.12 З 4 8000 м пыль 3/3 1200 м
[Sc]
+20.2 +11.5 57 +22 +22 комфорт 1017.9 1018.0
03 13.12 В 6 8000 м мгла 3/3 1200 м
[Sc]
+22.0 +8.0 41 +23 +23 комфорт 1018.6 1019.0
06 13.12 ЮВ 5 8000 м мгла 5/0
[Ac trans]
+24.0 +8.0 36 +24 +27 комфорт 1020.0 1014.6 +20.0
09 13.12 ЮВ 6 10 км 3/0
[Ac trans]
+24.5 +7.6 34 +25 +28 комфорт 1018.5 1019.0
12 13.12 ЮВ 6 8000 м мгла ясно +23.4 +8.7 39 +25 +25 комфорт 1017.1 1011.7
15 13.12 ЮВ 2 10 км ясно +21.8 +7.6 40 +23 +23 комфорт 1018.1 1012.7
18 13.12 СЗ 2 10 км ясно +19.9 +7.4 44 +22 +22 комфорт 1018.5 1019.0 +25.2
21 13.12 СЗ 3 10 км мгла ясно +18.5 +7.0 47 +19 +19 1017.8 1018.0
00 14.12 СЗ 3 10 км ясно +18.1 +7.8 51 +18 +18 1017.3 1017.0
03 14.12 З 3 10 км 4/0
[Ac trans Ci fib]
+17.2 +8.9 58 +17 +17 1018.6 1019.0
06 14.12 ЮВ 3 10 км 4/3 750 м
[Sc Ci fib]
+23.4 +11.6 47 +26 +29 жарко 1020.3 1020.0 +17.0
09 14.12 В 5 10 км 5/3 750 м
[Sc Ci fib]
+24.4 +12.1 46 +26 +30 жарко 1018.5 1013.2
12 14.12 В 4 10 км 3/3 600 м
[Sc]
+24.0 +9.6 40 +25 +26 комфорт 1017.5 1018.0
15 14.12 ЮВ 3 10 км 3/3 1200 м
[Sc]
+22.8 +11.9 50 +25 +25 комфорт 1018.4 1018.0
18 14.12 ЮВ 4 10 км 6/3 1200 м
[Sc Ac trans]
+22.8 +13.0 54 +26 +26 жарко 1018.5 1019.0 +24.9
21 14.12 ЮЗ 1 10 км 5/1 1200 м
[Sc Ac trans]
+21.0 +11.3 54 +24 +24 комфорт 1018.1 1018.0
03 15.12 З 3 10 км 3/3 900 м
[Sc]
+18.8 +11.9 64 +20 +20 1018.9 1019.0
09 15.12 В 5 10 км 8/5 750 м
[Sc Ac trans]
+23.5 +14.4 57 +26 +28 жарко 1019.2 1019.0
15 15.12 ЮВ 4 10 км 6/6 900 м
[Sc Ac trans]
+23.0 +14.2 58 +27 +27 душно 1019.8 1020.0
18 15.12 ЮВ 3 10 км 5/5 1200 м
[Sc]
+22.7 +13.5 56 +26 +26 жарко 1020.6 1015.2 +24.8
21 15.12 З 1 10 км 5/5 1200 м
[Sc]
+21.1 +13.1 60 +23 +23 комфорт 1019.7 1020.0
00 16.12 СЗ 3 10 км 1/1 600 м
[Sc]
+19.2 +12.7 66 +21 +21 комфорт 1019.3 1013.8
03 16.12 СЗ 3 10 км 6/3 900 м
[Sc Ac trans]
+19.0 +12.8 67 +20 +20 1020.3 1014.8
06 16.12 ЮВ 2 45 км 3/3 900 м
[Sc]
+24.0 +13.8 53 +26 +31 жарко 1021.6 1016.2 +18.5
12 16.12 В 5 10 км 6/6 900 м
[Cu Sc]
+23.6 +15.7 61 +27 +27 жарко 1018.7 1019.0
15 16.12 СВ 4 8000 м гроза, ливневой дождь 9/9 750 м
[Cu Sc]
+22.7 +15.7 65 +27 +27 душно 1019.8 1020.0
18 16.12 З 3 8000 м слабый дождь {гроза} 6/4 900 м
[Sc diur, vesp As op]
+18.6 +14.6 78 +20 +20 1021.0 1021.0 +25.1
21 16.12 З 1 10 км в посл. час дождь {гроза} 5/5 1200 м
[Sc diur, vesp]
+18.8 +14.4 76 +21 +21 комфорт 1020.6 1021.0
00 17.12 С 3 10 км 6/6 750 м
[Sc diur, vesp]
+18.6 +15.7 83 +20 +20 1020.3 1020.0
03 17.12 В 5 5000 м дождь 9/9 600 м
[Cu Sc]
+18.6 +16.4 87 +19 +19 1021.4 1021.0
06 17.12 СЗ 3 800 м гроза, ливневой дождь н/о +16.8 +16.0 95 +17 +17 1023.7 1024.0 +16.6 72
09 17.12 С 3 10 км слабый дождь 9/4 540 м
[Cu Sc Ac As]
+17.6 +14.3 81 +18 +20 1020.9 1021.0
12 17.12 С 3 10 км 9/4 750 м
[Sc Ac As]
+19.6 +14.3 71 +22 +22 комфорт 1019.4 1013.9 26
15 17.12 ЮЗ 2 10 км 5/1 750 м
[Sc Ac trans]
+18.7 +16.5 87 +20 +20 1020.1 1020.0
18 17.12 СЗ 3 10 км 4/4 900 м
[Sc]
+18.5 +15.4 82 +19 +19 1020.5 1015.0 +20.1 26
21 17.12 СЗ 2 10 км 5/4 750 м
[Sc Ac trans]
+18.2 +15.5 84 +19 +19 1020.4 1020.0
00 18.12 С 1 10 км в посл. час дождь {морось} 5/5 750 м
[Sc]
+18.4 +15.5 83 +20 +20 1019.9 1014.4 0.4
03 18.12 С 3 10 км {гроза} 5/5 600 м
[Sc]
+17.8 +14.0 78 +18 +18 1021.8 1016.2
06 18.12 С 3 10 км 4/4 600 м
[Cu hum]
+20.9 +14.8 68 +24 +28 комфорт 1022.8 1023.0 +16.1
09 18.12 СВ 6 8000 м мгла 5/5 600 м
[Cu hum]
+22.2 +15.1 64 +26 +28 душно 1020.8 1021.0

 

Местоположение метеостанции Fujairah (ОАЭ): широта 25.10 долгота 56.33 высота над уровнем моря 28 м.

В архиве по умолчанию представлена погода в Fujairah за последнюю неделю. Архивные данные за месяц целиком и за предыдущие месяцы, начиная с января 2011 года, Вы можете получить, выбрав интересующий диапазон дат из раскрывающегося списка и нажав кнопку "Ввод!".

Внимание! Время в таблицах - всемирное. Для получения местного времени необходимо прибавить поправку, которая в Fujairah равна 4 ч.

Смотрите также архив погоды в соседних городах и на ближайших метеорологических станциях:

Погода в Diba (Оман) (58 км)
Погода в Ras Al Khaimah Int Airport (ОАЭ) (70 км)
Погода в Sohar Majis (Оман) (76 км)
Погода в Sharjah (ОАЭ) (85 км)
Погода в Dubai (ОАЭ) (102 км)
Погода в Buraimi (Оман) (112 км)
Погода в Al Ain Int Airport (ОАЭ) (118 км)
Погода в Khasab Airport (Оман) (119 км)
Погода в Dubai Al Maktoum Int Airport (ОАЭ) (120 км)
Погода в Khasab (Оман) (124 км)

Пояснения к столбцам:

Ветер - указаны скорость ветра в м/с - средняя за 10 мин, порывы в срок и между сроками (в фигурных скобках) и направление, откуда дует ветер: С - северный, СВ - северо-восточный, В - восточный, ЮВ - юго-восточный, Ю - южный, ЮЗ - юго-западный, З - западный, СЗ - северо-западный.
Видимость - горизонтальная дальность видимости в метрах или километрах. При видимости от 1 до 10 км при отсутствии осадков обычно наблюдается дымка, при ухудшении видимости до 1 км и менее - туман. В сухую погоду видимость может ухудшаться дымом, пылью или мглою.
Явления - указаны атмосферные явления, наблюдавшиеся в срок или в последний час перед сроком; фигурными скобками обозначены явления, наблюдавшиеся между сроками (за 1-3 часа до срока); квадратными скобками обозначены град или гололедные отложения с указанием их диаметра в мм.
Облачность - указаны через наклонную черту общая и нижняя облачность в баллах и высота нижней границы облаков в метрах; квадратными скобками обозначены формы облаков: Ci - перистые, Cs - перисто-слоистые, Cc - перисто-кучевые, Ac - высококучевые, As - высокослоистые, Sc - слоисто-кучевые, Ns - слоисто-дождевые, Cu - кучевые, Cb - кучево-дождевые. Подробнее классификацию облаков см. в Атласе облаков (PDF).
T - Температура воздуха - температура, измеренная на высоте 2 м над землей.
Td - Температура точки росы - температура, при понижении до которой содержащийся в воздухе водяной пар достигнет насыщения.
f - Относительная влажность воздуха - влажноcть воздуха, измеренная на высоте 2 м над землей.
Te - Эффективная температура - температура, которую ощущает одетый по сезону человек в тени. Характеристика душности погоды. При расчете учитывается влияние влажности воздуха и скорости ветра на теплоощущения человека.
Tes - Эффективная температура на солнце - температура, которую ощущает человек, с поправкой на солнечный нагрев. Характеристика знойности погоды. Зависит от высоты солнца над горизонтом, облачности и скорости ветра. Ночью, в пасмурную погоду, а также при ветре 12 м/с и более поправка равна нулю.
P - Атмосферное давление - приведенное к уровню моря атмосферное давление.
Po - Атмосферное давление - измеренное на уровне метеостанции атмосферное давление.
Tmin - Минимальная температура - минимум температуры воздуха на высоте 2 м над землей.
Tmax - Максимальная температура - максимум температуры воздуха на высоте 2 м над землей.
R - Количество осадков - Количество выпавших осадков за период времени, мм. При наведении курсора мыши на число - период времени, за который выпало указанное количество осадков.
R24 - Количество осадков - Количество выпавших осадков за 24 часа, мм.
S - Снежный покров - Высота снежного покрова, см. При наведении курсора мыши на число - состояние снежного покрова и степень покрытия местности в баллах.